This demonstration page uses our WeatherBlox Daily Observations layout. Learn more.

Left ArrowRight Arrow

41.55636, -103.73856

Hourly Observations for July 28, 2021

Temp ( °F °C ) Dew Point ( °F °C ) Humidity (%) Winds ( mph kmh ) Pressure ( in mb ) Visibility ( mi km ) Precip ( " mm )
12:58 am 00:58 Clear 78 25.8 50 10.2 38 38 S 22 35 29.95 1014 10 16 N/A
1:58 am 01:58 Clear 78 25.8 52 11 40 40 S 23 37 29.92 1013 10 16 N/A
2:58 am 02:58 Clear 77 25 53 11.8 44 44 SSW 24 39 29.92 1013 10 16 N/A
3:58 am 03:58 Clear 77 25 53 11.7 43 43 SSW 23 37 29.91 1013 10 16 N/A
4:58 am 04:58 Clear 75 23.8 54 12.1 48 48 SSW 17 28 29.93 1013 10 16 N/A
5:58 am 05:58 Sunny 73 23 55 12.5 52 52 SSW 16 26 29.93 1014 10 16 N/A
6:58 am 06:58 Sunny 74 23.5 55 12.7 51 51 SSW 14 22 29.93 1014 10 16 N/A
7:58 am 07:58 Sunny 77 25.2 55 12.7 46 46 NW 6 9 29.97 1015 10 16 N/A
8:58 am 08:58 Sunny 84 28.7 52 11.2 34 34 SSW 5 7 29.95 1014 10 16 N/A
9:58 am 09:58 Sunny 89 31.6 51 10.5 27 27 N N/A 29.93 1014 10 16 N/A
10:58 am 10:58 Sunny 93 34 46 7.6 19 19 SW 8 13 29.93 1014 10 16 N/A
11:58 am 11:58 Sunny 96 35.4 44 6.9 17 17 SSE 12 19 29.91 1013 10 16 N/A
12:58 pm 12:58 Sunny 97 36.3 44 6.4 16 16 E 5 7 29.90 1013 10 16 N/A
1:58 pm 13:58 Mostly Sunny 96 35.3 44 6.5 17 17 SSE 6 9 29.91 1013 10 16 N/A
2:58 pm 14:58 Mostly Sunny 100 37.7 43 6 14 14 E 9 15 29.89 1012 10 16 N/A
3:58 pm 15:58 Sunny 100 37.9 42 5.6 14 14 SSE 10 17 29.88 1012 10 16 N/A
4:58 pm 16:58 Sunny 99 37.2 41 5.1 14 14 ENE 10 17 29.87 1012 10 16 N/A
5:58 pm 17:58 Sunny 98 36.4 41 4.8 14 14 E 16 26 29.87 1012 10 16 N/A
6:58 pm 18:58 Sunny 95 34.9 40 4.4 15 15 E 15 24 29.88 1012 10 16 N/A
7:58 pm 19:58 Sunny 87 30.8 45 7.3 23 23 E 12 19 29.91 1013 10 16 N/A
8:58 pm 20:58 Clear 82 28 46 7.7 28 28 ESE 12 19 29.93 1014 10 16 N/A
9:58 pm 21:58 Clear 83 28.5 47 8.4 28 28 ESE 14 22 29.95 1014 10 16 N/A
10:58 pm 22:58 Clear 82 27.7 47 8.4 30 30 E 12 19 29.95 1014 10 16 N/A
11:58 pm 23:58 Clear 80 26.6 48 8.7 32 32 ESE 8 13 29.95 1014 10 16 N/A

Powered by AerisWeather